OneWeb SL0416

operational
NORAD ID: 51625 Int'l Des: 2022-012 Owner: ONEWEBN Country: UK Constellation: oneweb
LEOCIRCULARPOLARONEWEB_TYPE

OneWeb SL0416について

説明を読み込み中...

リアルタイム位置

3D地球を読み込み中...

次回通過

高度履歴

Altitude vs Time

uPlot chart will show altitude changes over time

軌道要素

1 51625U 22012D 26034.54838344 -.00000250 00000-0 -75219-3 0 9996
2 51625 87.8747 62.9186 0002218 102.9765 257.1610 13.10369947191823
Epoch: Feb 3, 2026 • Age: 12 hours

現在のステータス

高度 1248.1 km
速度 7.23 km/s
衛星直下点 -64.54°S, 100.78°W
打ち上げ日 Feb 10, 2022
運用期間 3.9 years
タイプ internet

技術仕様

分類 Payload
質量 148.00 kg
乾燥質量 140.00 kg
総質量 148.00 kg
長さ 1.30 m
直径 1.00 m
スパン 5.00 m
形状 Trapezoid+2 pan
製造者 ONEWUS
バスタイプ ARROW
フェーズステータス In Orbit
所有者/国 ONEWEBN/UK

大規模コンステレーション

Loading constellations...